Flag for U.S.A. Weather past 2 weeks in Garland, Texas, U.S.A.

Now
69 °F

Clear.


Feels Like: 69 °F
Forecast: 59 / 78 °F
Wind: 8 mph from East

Location: Mesquite Metro Airport

Current Time: Oct 22, 2014 at 11:08:43 PM

Latest Report: Oct 22, 2014 at 10:35 PM


Visibility: 10 mi

Pressure: 30.12 "Hg

Humidity: 56%

Dew point: 53 °F

Location of GarlandLocation

Historic Weather in Garland — Graph

°F

Garland temperature yesterday

Maximum temperature yesterday: 81 °F (at 1:50 PM)
Minimum temperature yesterday: 54 °F (at 6:50 AM)
Average temperature yesterday: 65 °F

Past Weeks' High & Low Weather Summary

 TemperatureHumidityPressure
High91 °F (Oct 10, 2:50 PM)100% (Oct 12, 7:50 PM)30.19 "Hg (Oct 12, 7:50 PM)
Low46 °F (Oct 15, 7:50 AM)22% (Oct 14, 3:50 PM)29.59 "Hg (Oct 13, 2:35 AM)
Average67 °F73%29.98 "Hg
* Reported Oct 7 9:55 PM — Oct 22 9:55 PM, Garland, Weather by CustomWeather, © 2014

Note: Actual official high and low records may vary slightly from our data, if they occured in-between our weather recording intervals... More about our weather records

Advertising

Garland weather history for previous 24 hours

 ConditionsComfort  
Time TempWeatherWind HumidityBarometerVisibility
9:55 PM
Oct 22
69 °FClear.7 mph56%30.13 "Hg10 mi
7:47 PM72 °FClear.3 mph53%30.09 "Hg10 mi
5:50 PM79 °FScattered clouds.6 mph45%30.08 "Hg10 mi
4:47 PM81 °FScattered clouds.6 mph39%30.08 "Hg10 mi
3:47 PM81 °FPartly sunny.7 mph39%30.08 "Hg10 mi
2:50 PM79 °FScattered clouds.7 mph45%30.09 "Hg10 mi
1:47 PM81 °FBroken clouds.9 mph42%30.11 "Hg10 mi
12:50 PM79 °FWarm.8 mph48%30.15 "Hg10 mi
11:50 AM77 °FSunny.7 mph54%30.17 "Hg10 mi
10:50 AM75 °FSunny.8 mph61%30.17 "Hg10 mi
9:50 AM68 °FSunny.6 mph83%30.16 "Hg7 mi
8:50 AM63 °FFog.No wind100%30.16 "Hg5 mi
7:50 AM57 °FFog.No wind94%30.13 "Hg5 mi
6:50 AM57 °FClear.No wind94%30.12 "Hg4 mi
5:35 AM58 °FClear.No wind96%30.09 "Hg7 mi
5:15 AM58 °FClear.No wind97%30.09 "Hg3 mi
4:55 AM57 °FClear.No wind97%30.08 "Hg3 mi
4:35 AM60 °FClear.No wind97%30.08 "Hg5 mi
4:15 AM59 °FClear.No wind94%30.07 "Hg5 mi
3:55 AM59 °FClear.No wind95%30.07 "Hg7 mi
3:15 AM61 °FClear.No wind96%30.07 "Hg7 mi
2:55 AM60 °FClear.No wind95%30.07 "Hg5 mi
2:35 AM59 °FClear.No wind95%30.07 "Hg5 mi
2:15 AM60 °FClear.No wind95%30.07 "Hg7 mi
1:55 AM62 °FClear.No wind94%30.07 "Hg10 mi
1:35 AM61 °FClear.No wind91%30.06 "Hg10 mi
1:15 AM62 °FClear.No wind92%30.07 "Hg10 mi
12:55 AM61 °FClear.No wind92%30.07 "Hg10 mi
12:35 AM61 °FClear.3 mph91%30.07 "Hg10 mi
12:15 AM64 °FClear.3 mph85%30.07 "Hg10 mi
11:55 PM
Oct 21
64 °FClear.No wind85%30.07 "Hg10 mi
11:15 PM63 °FClear.No wind88%30.07 "Hg10 mi
Weather by CustomWeather, © 2014

See weather overviewHow to use our weather pages